Weather Roundup
Issued by NWS

Home | Current Version | Previous Version | Graphics & Text | Print | Product List | Glossary Off
Versions: 1 2 3 4 5 6 7 8 9 10 11 12 13 14 15 16 17 18 19 20 21 22 23 24 25 26 27 28 29 30 31 32 33 34 35 36 37 38 39 40 41 42 43 44 45 46 47 48 49 50

787
NZUS93 KARX 080810
HRRWXR

CURRENT HOURLY OBSERVATIONS ACROSS
MUCH OF THE UPPER MISSISSIPPI VALLEY
NATIONAL WEATHER SERVICE LA CROSSE WI
200 AM CST THU DEC 08 2016


...SOUTHEAST MINNESOTA...


CITY           SKY/WX    TMP DP  RH WIND       PRES   REMARKS
ROCHESTER      LGT SNOW  13   8  81 W21G29    30.15R WCI  -5
ROCHESTER/MAYO CLOUDY    14   9  81 W18G33    30.16R WCI  -3
WINONA         LGT SNOW  18  12  79 NW15      30.18R WCI   3
AUSTIN         FLURRIES  10   7  85 W17G26    30.19R WCI  -7
ALBERT LEA     FLURRIES  16  10  79 W14G23    30.22R WCI   1
DODGE CENTER   LGT SNOW  12   9  85 W20       30.15S WCI  -6
PRESTON        CLOUDY    11   6  80 W20       30.16S WCI  -7
OWATONNA       LGT SNOW  14   9  79 W17G25    30.19S WCI  -3
FARIBAULT      NOT AVBL
$$

...ELSEWHERE IN MINNESOTA...


CITY           SKY/WX    TMP DP  RH WIND       PRES   REMARKS
MINNEAPOLIS    FLURRIES  16  10  77 W14       30.16R WCI   2
INTNL FALLS    LGT SNOW  19  15  84 NW9       30.07R FOG     WCI   8
DULUTH         LGT SNOW  22  18  85 NW12      29.97R FOG     WCI  10
RED WING       LGT SNOW  18  10  73 W14G21    30.15R WCI   4
REDWOOD FALLS  LGT SNOW  14   8  77 W18G29    30.27R WCI  -3
MANKATO        FLURRIES  13   9  84 W16G25    30.23R WCI  -3
WORTHINGTON    FLURRIES   8   3  80 W23G33    30.29S WCI -13
FAIRMONT       FLURRIES  11   5  77 W22G30    30.27R WCI  -8
$$

...SOUTHWEST WISCONSIN...


CITY           SKY/WX    TMP DP  RH WIND       PRES   REMARKS
LA CROSSE      CLOUDY    18   8  65 W16G23    30.17R WCI   3
PRAIRIE DU CHI CLOUDY    15   6  67 W15G22    30.22S WCI  -1
BOSCOBEL       CLOUDY    16   7  67 W10G24    30.20R WCI   4
LONE ROCK      CLOUDY    18   8  65 W16G23    30.16R WCI   3
PLATTEVILLE    CLEAR     15   9  76 W17G30    30.17S WCI  -1
FORT MC COY    FLURRIES  17  11  79 W8        30.13R WCI   6
CAMP DOUGLAS   FLURRIES  17  10  75 W15       30.10R WCI   2
MAUSTON-NEW LI CLOUDY    18   9  70 W10G21    30.10R WCI   6
VIROQUA        CLOUDY    14  10  84 W16       30.11S WCI  -2
WIS DELLS      CLOUDY    18  10  71 W12G18    30.09S WCI   6
$$

...ELSEWHERE IN WISCONSIN...


CITY           SKY/WX    TMP DP  RH WIND       PRES   REMARKS
MILWAUKEE      FLURRIES  24  13  62 W9        30.09R WCI  14
MADISON        MOCLDY    19   9  65 MISG      30.11R
GREEN BAY      FLURRIES  23  13  65 W21G28    30.01S WCI   8
EAU CLAIRE     LGT SNOW  15  11  83 W12       30.09R FOG     WCI   2
BLACK RVR FLS  LGT SNOW  17  10  73 W12G20    30.11S WCI   4
MEDFORD        LGT SNOW  13   8  83 W10       29.98S WCI  -1
WAUSAU         FLURRIES  14   9  80 W17       29.99R WCI  -3
WIS RAPIDS     FLURRIES  17  11  77 W15G21    30.06R WCI   2
MARSHFIELD     FLURRIES  14   8  77 W17G25    30.02R WCI  -3
RICE LAKE      FLURRIES  16  12  84 W13       30.07R WCI   2
$$

...NORTHEAST IOWA...


CITY           SKY/WX    TMP DP  RH WIND       PRES   REMARKS
WATERLOO       MOCLDY    13   4  67 W14G23    30.28R WCI  -2
DUBUQUE        CLOUDY    16   9  74 W28G35    30.20R WCI  -4
DECORAH        CLOUDY    12   5  73 W9G15     30.18R WCI   0
MASON CITY     CLEAR     10   4  76 W20G31    30.27R WCI  -9
CHARLES CITY   MOCLDY    12   5  73 W18G25    30.24R WCI  -5
OELWEIN        MOCLDY    12   7  79 W22G32    30.23S WCI  -7
$$

...ELSEWHERE IN IOWA...


CITY           SKY/WX    TMP DP  RH WIND       PRES   REMARKS
DES MOINES     FLURRIES  17   8  67 NW23G31   30.37R WCI  -1
IOWA CITY      PTCLDY    18   9  68 W21G26    30.32R WCI   1
FORT DODGE     CLEAR     10   1  67 W13G20    30.34S WCI  -5
MARSHALLTOWN   MOCLDY    14   6  70 W24G35    30.32R WCI  -5
CEDAR RAPIDS   PTCLDY    15   9  76 NW26G36   30.28R WCI  -4
$$

...NORTHERN ILLINOIS...


CITY           SKY/WX    TMP DP  RH WIND       PRES   REMARKS
CHICAGO-OHARE  FLURRIES  23  14  68 W21G32    30.14S WCI   8
CHICAGO-MIDWAY FLURRIES  24  13  62 W17G26    30.17R WCI  11
MOLINE         CLOUDY    20  10  65 W20G32    30.27R WCI   4
ROCKFORD       FLURRIES  22  11  62 W18G31    30.18R WCI   7
PEORIA         CLEAR     20  11  68 W15G22    30.30R WCI   6
$$

NOTE: "FAIR" INDICATES FEW OR NO CLOUDS BELOW 12,000 FEET WITH NO
SIGNIFICANT WEATHER AND/OR OBSTRUCTIONS TO VISIBILITY. WIND
SPEEDS ARE IN MILES-PER-HOUR.




USA.gov is the U.S. government's official web portal to all federal, state and local government web resources and services.